WZZ527D ESSA-EPGD

Flight info

Callsign WZZ527D
Flight time 1h 3m
Altitude 36000
Route NOSLI N850 ABAMA DCT PENOR/N0446F350 DCT MOTAD N133 DOMAG T240 OGDAV
Aircraft A321/M-SDE3FGHIRWY/LB1

Departure

Time 2026-05-04 23:19
Airport Stockholm-Arlanda Airport (ESSA)

Arrival

Time 2026-05-05 00:23
Airport Gdańsk Lech Wałęsa Airport (EPGD)
Time Latitude Longitude Altitude Speed Heading
2026-05-04 23:04 59.64740 17.92518 112 ft 0 kts 36°
2026-05-04 23:09 59.64734 17.92509 112 ft 4 kts 32°
2026-05-04 23:10 59.64710 17.92489 112 ft 4 kts 357°
2026-05-04 23:10 59.64692 17.92505 112 ft 3 kts 291°
2026-05-04 23:10 59.64690 17.92513 112 ft 0 kts 286°
2026-05-04 23:12 59.64693 17.92495 112 ft 3 kts 287°
2026-05-04 23:12 59.64702 17.92433 112 ft 8 kts 287°
2026-05-04 23:13 59.64721 17.92300 112 ft 11 kts 277°
2026-05-04 23:13 59.64675 17.92193 112 ft 12 kts 194°
2026-05-04 23:13 59.64592 17.92163 112 ft 13 kts 190°
2026-05-04 23:13 59.64503 17.92131 111 ft 14 kts 190°
2026-05-04 23:14 59.64410 17.92097 114 ft 14 kts 191°
2026-05-04 23:14 59.64314 17.92096 113 ft 14 kts 148°
2026-05-04 23:14 59.64263 17.92251 113 ft 13 kts 117°
2026-05-04 23:14 59.64219 17.92420 113 ft 15 kts 117°
2026-05-04 23:15 59.64165 17.92624 113 ft 18 kts 118°
2026-05-04 23:15 59.64103 17.92858 111 ft 20 kts 117°
2026-05-04 23:15 59.64036 17.93110 111 ft 21 kts 117°
2026-05-04 23:15 59.63987 17.93388 112 ft 22 kts 88°
2026-05-04 23:16 59.64046 17.93657 112 ft 22 kts 57°
2026-05-04 23:16 59.64131 17.93921 108 ft 24 kts 58°
2026-05-04 23:16 59.64226 17.94219 104 ft 27 kts 58°
2026-05-04 23:16 59.64328 17.94539 103 ft 28 kts 58°
2026-05-04 23:17 59.64427 17.94846 103 ft 26 kts 57°
2026-05-04 23:17 59.64523 17.95148 104 ft 26 kts 58°
2026-05-04 23:17 59.64634 17.95378 105 ft 19 kts 26°
2026-05-04 23:17 59.64761 17.95443 106 ft 19 kts 11°
2026-05-04 23:18 59.64865 17.95531 106 ft 12 kts 72°
2026-05-04 23:18 59.64850 17.95713 105 ft 16 kts 101°
2026-05-04 23:18 59.64806 17.95859 106 ft 9 kts 178°
2026-05-04 23:18 59.64738 17.95840 107 ft 16 kts 189°
2026-05-04 23:19 59.64364 17.95703 111 ft 91 kts 191°
2026-05-04 23:19 59.63531 17.95401 120 ft 150 kts 191°
2026-05-04 23:19 59.62415 17.94985 511 ft 164 kts 192°
2026-05-04 23:19 59.61305 17.94554 1228 ft 164 kts 193°
2026-05-04 23:20 59.60156 17.93957 1560 ft 182 kts 197°
2026-05-04 23:20 59.58877 17.93168 1790 ft 203 kts 198°
2026-05-04 23:20 59.57551 17.91991 2149 ft 214 kts 221°
2026-05-04 23:20 59.56645 17.89623 2650 ft 222 kts 239°
2026-05-04 23:21 59.55861 17.86982 3272 ft 223 kts 241°
2026-05-04 23:21 59.55076 17.84282 3813 ft 234 kts 242°
2026-05-04 23:21 59.54252 17.81458 4508 ft 240 kts 242°
2026-05-04 23:21 59.53414 17.78600 5281 ft 243 kts 242°
2026-05-04 23:22 59.52562 17.75712 6051 ft 245 kts 242°
2026-05-04 23:22 59.51699 17.72803 6798 ft 247 kts 242°
2026-05-04 23:22 59.50772 17.69923 7491 ft 253 kts 233°
2026-05-04 23:22 59.49452 17.67574 8200 ft 262 kts 216°
2026-05-04 23:23 59.47797 17.65954 8889 ft 269 kts 209°
2026-05-04 23:23 59.46085 17.64422 9598 ft 272 kts 209°
2026-05-04 23:23 59.44346 17.62859 10096 ft 284 kts 209°
2026-05-04 23:23 59.42478 17.61162 10261 ft 307 kts 209°
2026-05-04 23:24 59.40469 17.59329 10443 ft 327 kts 210°
2026-05-04 23:24 59.38400 17.57355 10969 ft 333 kts 211°
2026-05-04 23:24 59.36324 17.55291 11650 ft 335 kts 212°
2026-05-04 23:24 59.34252 17.53194 12388 ft 336 kts 212°
2026-05-04 23:25 59.32173 17.51082 13112 ft 337 kts 212°
2026-05-04 23:25 59.30088 17.48973 13761 ft 339 kts 213°
2026-05-04 23:25 59.27973 17.46845 14384 ft 343 kts 213°
2026-05-04 23:25 59.25842 17.44708 15013 ft 346 kts 213°
2026-05-04 23:26 59.23693 17.42558 15616 ft 349 kts 213°
2026-05-04 23:26 59.21519 17.40394 16222 ft 352 kts 213°
2026-05-04 23:26 59.19328 17.38222 16797 ft 355 kts 213°
2026-05-04 23:26 59.17116 17.36036 17382 ft 358 kts 214°
2026-05-04 23:27 59.14884 17.33842 17950 ft 361 kts 214°
2026-05-04 23:27 59.12645 17.31645 18491 ft 364 kts 214°
2026-05-04 23:27 59.10374 17.29368 19032 ft 366 kts 215°
2026-05-04 23:27 59.08145 17.26970 19564 ft 367 kts 217°
2026-05-04 23:28 59.06105 17.24079 20057 ft 362 kts 227°
2026-05-04 23:28 59.04201 17.20855 20546 ft 365 kts 227°
2026-05-04 23:28 59.02263 17.17644 21016 ft 367 kts 226°
2026-05-04 23:28 59.00299 17.14447 21494 ft 370 kts 226°
2026-05-04 23:29 58.98314 17.11261 21957 ft 372 kts 225°
2026-05-04 23:29 58.96335 17.08099 22402 ft 374 kts 225°
2026-05-04 23:29 58.94319 17.04885 22810 ft 377 kts 225°
2026-05-04 23:29 58.92289 17.01651 23233 ft 379 kts 225°
2026-05-04 23:30 58.90250 16.98399 23646 ft 381 kts 225°
2026-05-04 23:30 58.88202 16.95129 24054 ft 383 kts 225°
2026-05-04 23:30 58.86141 16.91841 24434 ft 385 kts 225°
2026-05-04 23:30 58.84071 16.88537 24807 ft 388 kts 225°
2026-05-04 23:31 58.81984 16.85218 25158 ft 390 kts 225°
2026-05-04 23:31 58.79881 16.81876 25502 ft 393 kts 225°
2026-05-04 23:31 58.77762 16.78516 25860 ft 395 kts 225°
2026-05-04 23:31 58.75632 16.75147 26192 ft 398 kts 225°
2026-05-04 23:32 58.73483 16.71760 26510 ft 400 kts 225°
2026-05-04 23:32 58.71322 16.68357 26830 ft 402 kts 225°
2026-05-04 23:32 58.69148 16.64933 27133 ft 405 kts 225°
2026-05-04 23:32 58.66965 16.61495 27439 ft 407 kts 225°
2026-05-04 23:33 58.64766 16.58043 27731 ft 409 kts 225°
2026-05-04 23:33 58.62554 16.54581 28050 ft 412 kts 225°
2026-05-04 23:33 58.60326 16.51097 28366 ft 414 kts 224°
2026-05-04 23:33 58.58088 16.47601 28660 ft 416 kts 224°
2026-05-04 23:34 58.55840 16.44101 28997 ft 417 kts 224°
2026-05-04 23:34 58.53589 16.40608 29399 ft 416 kts 224°
2026-05-04 23:34 58.51344 16.37129 29790 ft 415 kts 224°
2026-05-04 23:34 58.49102 16.33654 30170 ft 414 kts 224°
2026-05-04 23:35 58.46866 16.30192 30540 ft 414 kts 224°
2026-05-04 23:35 58.44627 16.26727 30875 ft 414 kts 224°
2026-05-04 23:35 58.42391 16.23267 31205 ft 414 kts 224°
2026-05-04 23:35 58.40150 16.19813 31533 ft 414 kts 224°
2026-05-04 23:36 58.37903 16.16365 31857 ft 415 kts 224°
2026-05-04 23:36 58.35658 16.12930 32186 ft 414 kts 224°
2026-05-04 23:36 58.33442 16.09543 32494 ft 414 kts 224°
2026-05-04 23:36 58.31168 16.06067 32787 ft 414 kts 224°
2026-05-04 23:37 58.28953 16.02682 33083 ft 414 kts 224°
2026-05-04 23:37 58.26709 15.99258 33368 ft 414 kts 224°
2026-05-04 23:37 58.24460 15.95832 33656 ft 414 kts 224°
2026-05-04 23:37 58.22214 15.92416 33955 ft 414 kts 224°
2026-05-04 23:38 58.19968 15.89005 34233 ft 414 kts 224°
2026-05-04 23:38 58.17719 15.85600 34473 ft 414 kts 224°
2026-05-04 23:38 58.15464 15.82197 34712 ft 415 kts 224°
2026-05-04 23:38 58.13204 15.78791 34960 ft 415 kts 224°
2026-05-04 23:39 58.10944 15.75388 35222 ft 415 kts 224°
2026-05-04 23:39 58.08686 15.71994 35467 ft 415 kts 223°
2026-05-04 23:39 58.06423 15.68598 35705 ft 416 kts 223°
2026-05-04 23:39 58.04089 15.65326 35801 ft 420 kts 218°
2026-05-04 23:40 57.98680 15.60856 35814 ft 436 kts 197°
2026-05-04 23:40 57.95632 15.60346 35821 ft 448 kts 182°
2026-05-04 23:40 57.92520 15.61363 35822 ft 460 kts 167°
2026-05-04 23:41 57.86496 15.65782 35822 ft 466 kts 164°
2026-05-04 23:41 57.80445 15.70169 35823 ft 466 kts 165°
2026-05-04 23:42 57.74385 15.74473 35826 ft 466 kts 165°
2026-05-04 23:42 57.68315 15.78778 35839 ft 467 kts 165°
2026-05-04 23:43 57.62243 15.83096 35843 ft 467 kts 165°
2026-05-04 23:43 57.56170 15.87396 35855 ft 467 kts 165°
2026-05-04 23:44 57.51121 15.90963 35863 ft 467 kts 165°
2026-05-04 23:44 57.45049 15.95233 35866 ft 466 kts 165°
2026-05-04 23:45 57.38971 15.99493 35882 ft 466 kts 165°
2026-05-04 23:45 57.32905 16.03737 35882 ft 466 kts 165°
2026-05-04 23:46 57.26844 16.07973 35889 ft 465 kts 165°
2026-05-04 23:46 57.20784 16.12175 35893 ft 465 kts 165°
2026-05-04 23:47 57.14726 16.16345 35900 ft 465 kts 165°
2026-05-04 23:47 57.08674 16.20516 35906 ft 464 kts 165°
2026-05-04 23:48 57.02625 16.24676 35907 ft 463 kts 165°
2026-05-04 23:48 56.96629 16.28775 35910 ft 463 kts 165°
2026-05-04 23:49 56.90557 16.32916 35909 ft 462 kts 165°
2026-05-04 23:49 56.84569 16.36990 35909 ft 462 kts 165°
2026-05-04 23:50 56.78543 16.41060 35917 ft 462 kts 165°
2026-05-04 23:50 56.72519 16.45119 35920 ft 461 kts 165°
2026-05-04 23:51 56.66500 16.49186 35919 ft 461 kts 165°
2026-05-04 23:51 56.60473 16.53224 35920 ft 461 kts 165°
2026-05-04 23:52 56.54444 16.57249 35921 ft 461 kts 164°
2026-05-04 23:52 56.48466 16.61234 35919 ft 460 kts 165°
2026-05-04 23:53 56.42450 16.65224 35918 ft 460 kts 165°
2026-05-04 23:53 56.36442 16.69191 35916 ft 460 kts 165°
2026-05-04 23:54 56.30433 16.73135 35916 ft 459 kts 165°
2026-05-04 23:54 56.24419 16.77082 35915 ft 460 kts 165°
2026-05-04 23:55 56.18424 16.81030 35913 ft 459 kts 165°
2026-05-04 23:56 56.09420 16.86888 35912 ft 459 kts 165°
2026-05-04 23:56 56.03424 16.90767 35913 ft 458 kts 165°
2026-05-04 23:57 55.97427 16.94646 35914 ft 458 kts 165°
2026-05-04 23:57 55.91431 16.98522 35924 ft 458 kts 165°
2026-05-04 23:58 55.85480 17.02344 35925 ft 457 kts 165°
2026-05-04 23:58 55.79489 17.06186 35927 ft 457 kts 165°
2026-05-04 23:59 55.73489 17.10017 35926 ft 458 kts 165°
2026-05-04 23:59 55.67496 17.13826 35934 ft 457 kts 165°
2026-05-05 00:00 55.61522 17.17770 35934 ft 459 kts 162°
2026-05-05 00:00 55.55680 17.22425 35937 ft 462 kts 159°
2026-05-05 00:01 55.49889 17.27359 35938 ft 461 kts 159°
2026-05-05 00:01 55.44083 17.32159 35929 ft 461 kts 160°
2026-05-05 00:01 55.41170 17.34498 35680 ft 460 kts 161°
2026-05-05 00:02 55.38294 17.36789 35434 ft 459 kts 161°
2026-05-05 00:02 55.35345 17.39128 35182 ft 459 kts 161°
2026-05-05 00:02 55.32473 17.41406 34619 ft 460 kts 161°
2026-05-05 00:02 55.29546 17.43726 33858 ft 463 kts 161°
2026-05-05 00:03 55.26597 17.46063 33021 ft 467 kts 161°
2026-05-05 00:03 55.23620 17.48421 32182 ft 470 kts 161°
2026-05-05 00:03 55.20625 17.50795 31281 ft 474 kts 161°
2026-05-05 00:03 55.17598 17.53166 30346 ft 478 kts 161°
2026-05-05 00:04 55.14550 17.55514 29386 ft 481 kts 161°
2026-05-05 00:04 55.11609 17.58471 28209 ft 498 kts 146°
2026-05-05 00:04 55.09112 17.62640 27330 ft 490 kts 139°
2026-05-05 00:04 55.06752 17.66878 25863 ft 483 kts 139°
2026-05-05 00:05 55.04456 17.70977 24466 ft 473 kts 139°
2026-05-05 00:05 55.02175 17.75039 23082 ft 463 kts 139°
2026-05-05 00:05 54.99942 17.79005 21696 ft 453 kts 139°
2026-05-05 00:05 54.97765 17.82866 20795 ft 435 kts 139°
2026-05-05 00:06 54.95728 17.86491 20488 ft 406 kts 140°
2026-05-05 00:06 54.93800 17.89923 19989 ft 389 kts 140°
2026-05-05 00:06 54.91875 17.93309 19497 ft 394 kts 140°
2026-05-05 00:06 54.89948 17.96684 19021 ft 392 kts 140°
2026-05-05 00:07 54.88032 18.00045 18535 ft 390 kts 140°
2026-05-05 00:07 54.86136 18.03377 18057 ft 386 kts 140°
2026-05-05 00:07 54.84253 18.06687 17573 ft 383 kts 140°
2026-05-05 00:07 54.82385 18.09969 17078 ft 381 kts 140°
2026-05-05 00:08 54.80555 18.13186 16584 ft 378 kts 140°
2026-05-05 00:08 54.78711 18.16415 16084 ft 375 kts 140°
2026-05-05 00:08 54.76877 18.19616 15579 ft 373 kts 140°
2026-05-05 00:08 54.75048 18.22797 15063 ft 371 kts 140°
2026-05-05 00:09 54.73237 18.25956 14463 ft 370 kts 139°
2026-05-05 00:09 54.71389 18.29171 13526 ft 378 kts 139°
2026-05-05 00:09 54.69538 18.32395 12580 ft 377 kts 139°
2026-05-05 00:09 54.67699 18.35596 11687 ft 374 kts 139°
2026-05-05 00:10 54.65878 18.38763 10835 ft 369 kts 139°
2026-05-05 00:10 54.64078 18.41886 10018 ft 364 kts 138°
2026-05-05 00:10 54.62324 18.44928 9652 ft 346 kts 138°
2026-05-05 00:10 54.60684 18.47772 9515 ft 324 kts 138°
2026-05-05 00:11 54.59140 18.50441 9328 ft 307 kts 139°
2026-05-05 00:11 54.57652 18.53001 8878 ft 300 kts 139°
2026-05-05 00:11 54.56182 18.55517 8354 ft 296 kts 139°
2026-05-05 00:11 54.54722 18.58010 7831 ft 294 kts 138°
2026-05-05 00:12 54.53278 18.60477 7315 ft 290 kts 139°
2026-05-05 00:12 54.51849 18.62921 6788 ft 288 kts 138°
2026-05-05 00:12 54.50435 18.65342 6278 ft 286 kts 138°
2026-05-05 00:12 54.49033 18.67746 5766 ft 283 kts 138°
2026-05-05 00:13 54.47665 18.70093 5265 ft 280 kts 137°
2026-05-05 00:13 54.46272 18.72481 4747 ft 277 kts 137°
2026-05-05 00:13 54.44924 18.74784 4240 ft 275 kts 137°
2026-05-05 00:13 54.43577 18.77078 3991 ft 273 kts 137°
2026-05-05 00:14 54.42225 18.79379 3879 ft 274 kts 137°
2026-05-05 00:14 54.40871 18.81684 3754 ft 274 kts 136°
2026-05-05 00:14 54.39519 18.83979 3618 ft 268 kts 136°
2026-05-05 00:14 54.38237 18.86161 3492 ft 251 kts 136°
2026-05-05 00:15 54.37027 18.88214 3370 ft 242 kts 136°
2026-05-05 00:15 54.35835 18.90235 3242 ft 241 kts 136°
2026-05-05 00:15 54.34616 18.92196 3114 ft 239 kts 146°
2026-05-05 00:15 54.33130 18.93388 2989 ft 235 kts 169°
2026-05-05 00:16 54.31538 18.93726 2867 ft 234 kts 177°
2026-05-05 00:16 54.29916 18.93839 2738 ft 237 kts 191°
2026-05-05 00:16 54.28373 18.92630 2695 ft 249 kts 225°
2026-05-05 00:16 54.27516 18.90231 2680 ft 229 kts 258°
2026-05-05 00:17 54.27537 18.87653 2691 ft 212 kts 287°
2026-05-05 00:17 54.28085 18.85347 2691 ft 207 kts 294°
2026-05-05 00:17 54.28659 18.83093 2691 ft 206 kts 294°
2026-05-05 00:17 54.29223 18.80858 2689 ft 205 kts 293°
2026-05-05 00:18 54.29788 18.78610 2689 ft 205 kts 293°
2026-05-05 00:18 54.30353 18.76362 2687 ft 206 kts 293°
2026-05-05 00:18 54.30912 18.74127 2701 ft 198 kts 293°
2026-05-05 00:18 54.31422 18.72087 2697 ft 175 kts 293°
2026-05-05 00:19 54.31881 18.70250 2687 ft 163 kts 293°
2026-05-05 00:19 54.32321 18.68492 2700 ft 159 kts 293°
2026-05-05 00:19 54.32752 18.66761 2610 ft 158 kts 292°
2026-05-05 00:19 54.33174 18.65074 2463 ft 150 kts 292°
2026-05-05 00:20 54.33576 18.63460 2269 ft 146 kts 292°
2026-05-05 00:20 54.33972 18.61874 2082 ft 144 kts 293°
2026-05-05 00:20 54.34367 18.60301 1880 ft 144 kts 293°
2026-05-05 00:20 54.34766 18.58732 1637 ft 143 kts 292°
2026-05-05 00:21 54.35152 18.57158 1482 ft 143 kts 292°
2026-05-05 00:21 54.35535 18.55571 1336 ft 144 kts 291°
2026-05-05 00:21 54.35931 18.53992 1144 ft 144 kts 292°
2026-05-05 00:21 54.36325 18.52417 944 ft 144 kts 291°
2026-05-05 00:22 54.36710 18.50843 750 ft 143 kts 292°
2026-05-05 00:22 54.37102 18.49277 568 ft 143 kts 292°
2026-05-05 00:22 54.37467 18.47792 471 ft 123 kts 292°
2026-05-05 00:22 54.37739 18.46695 457 ft 75 kts 293°
2026-05-05 00:23 54.37909 18.46045 458 ft 44 kts 297°
2026-05-05 00:23 54.38063 18.45753 454 ft 24 kts 326°
2026-05-05 00:23 54.38146 18.45745 454 ft 5 kts 80°
2026-05-05 00:23 54.38136 18.45813 454 ft 6 kts 110°
2026-05-05 00:24 54.38121 18.45872 455 ft 5 kts 113°
2026-05-05 00:24 54.38099 18.45964 459 ft 12 kts 110°
2026-05-05 00:24 54.38141 18.46090 460 ft 15 kts 27°